This is the latest recevied weather packets stored in our database for station/object KC5EZZ-2. If no packets are shown the sender has not sent any weather packets the latest 1 day(s).
| Time | Temp. | Humidity | Pressure | Rain* | Wind** | Luminosity | Snow |
|---|---|---|---|---|---|---|---|
| 1777981116 | 19.44° C | - | - | 0 mm | 3.58 m/s, 188° | - | - |
| 1777980816 | 19.44° C | - | - | 0 mm | 4.02 m/s, 201° | - | - |
| 1777980514 | 19.44° C | - | - | 0 mm | 3.58 m/s, 205° | - | - |
| 1777980215 | 19.44° C | - | - | 0 mm | 3.13 m/s, 177° | - | - |
| 1777979915 | 19.44° C | - | - | 0 mm | 3.13 m/s, 233° | - | - |
| 1777979613 | 19.44° C | - | - | 0 mm | 2.68 m/s, 188° | - | - |
| 1777979313 | 20° C | - | - | 0 mm | 2.68 m/s, 245° | - | - |
| 1777979048 | 20° C | - | - | 0 mm | 3.58 m/s, 194° | - | - |
| 1777979013 | 20° C | - | - | 0 mm | 3.58 m/s, 194° | - | - |
| 1777978748 | 20° C | - | - | 0 mm | 2.24 m/s, 205° | - | - |
| 1777978711 | 20° C | - | - | 0 mm | 2.24 m/s, 205° | - | - |
| 1777978411 | 20° C | - | - | 0 mm | 2.68 m/s, 211° | - | - |
| 1777978112 | 20° C | - | - | 0 mm | 2.68 m/s, 162° | - | - |
| 1777977809 | 20.56° C | - | - | 0 mm | 4.02 m/s, 170° | - | - |
| 1777977510 | 20° C | - | - | 0 mm | 2.68 m/s, 205° | - | - |
| 1777977209 | 20° C | - | - | 0 mm | 2.68 m/s, 187° | - | - |
| 1777976943 | 20° C | - | - | 0 mm | 3.13 m/s, 181° | - | - |
| 1777976907 | 20° C | - | - | 0 mm | 3.13 m/s, 181° | - | - |
| 1777976607 | 20.56° C | - | - | 0 mm | 3.58 m/s, 212° | - | - |
| 1777976308 | 20.56° C | - | - | 0 mm | 4.02 m/s, 194° | - | - |
| 1777976059 | 20.56° C | - | - | 0 mm | 3.13 m/s, 191° | - | - |
| 1777976005 | 20.56° C | - | - | 0 mm | 3.13 m/s, 191° | - | - |
| 1777975706 | 20.56° C | - | - | 0 mm | 4.02 m/s, 170° | - | - |
| 1777975406 | 20.56° C | - | - | 0 mm | 4.02 m/s, 172° | - | - |
| 1777975104 | 20.56° C | - | - | 0 mm | 4.47 m/s, 191° | - | - |
* Rain latest hour (hover to see other rain measurements)
** Current wind speed in m/s (hover to see current wind gust speed)